Regional Weather Roundup
Issued by NWS

Home | Current Version | Previous Version | Graphics & Text | Print | Product List | Glossary On
Versions: 1 2 3 4 5 6 7 8 9 10 11 12 13 14 15 16 17 18 19 20 21 22 23 24 25 26 27 28 29 30 31 32 33 34 35 36 37 38 39 40 41 42 43 44 45 46 47 48 49 50
000
ASUS43 KFSD 271410
RWRSD

WEATHER ROUNDUP FOR SOUTH DAKOTA
NATIONAL WEATHER SERVICE SIOUX FALLS SD
900 AM CDT SAT AUG 27 2016

NOTE: "FAIR" INDICATES FEW OR NO CLOUDS BELOW 12,000 FEET WITH NO
SIGNIFICANT WEATHER AND/OR OBSTRUCTIONS TO VISIBILITY.


SDZ001>005-009-010-012>017-271500-
NORTHWEST AND NORTH CENTRAL SOUTH DAKOTA

CITY           SKY/WX    TMP DP  RH WIND       PRES   REMARKS
BUFFALO          N/A     50  49  96 SW3       29.91S
FAITH            N/A     56  56 100 S6        29.98S
MOBRIDGE       SUNNY     60  56  86 SW5       29.94S
$$

SDZ012>016-024>037-041>051-057-063-072>074-271500-
SOUTHWEST AND SOUTH CENTRAL SOUTH DAKOTA

CITY           SKY/WX    TMP DP  RH WIND       PRES   REMARKS
RAPID CTY ARPT SUNNY     60  53  77 S3        30.00S
PIERRE         SUNNY     60  56  86 W12       29.97R
CUSTER         SUNNY     55  47  74 SW3       30.10S
ELLSWORTH AFB  SUNNY     59  55  87 S6        29.98S
PHILIP         SUNNY     61  53  75 N6        29.99S
PINE RIDGE     CLOUDY    54  54 100 SE3       30.05S
WINNER         FAIR      64  58  80 W7        30.02R
$$

SDZ004>011-016>023-039-040-271500-
NORTHEAST SOUTH DAKOTA

CITY           SKY/WX    TMP DP  RH WIND       PRES   REMARKS
ABERDEEN       CLOUDY    61  59  93 S12       29.98R
WATERTOWN      MOSUNNY   62  58  86 S10       30.01S
BROOKINGS      PTSUNNY   61  58  90 SE8       30.03R
SISSETON         N/A     64  60  87 S12       29.98S
$$

SDZ017-020-022-023-036>040-048>070-271500-
SOUTHEAST SOUTH DAKOTA

CITY           SKY/WX    TMP DP  RH WIND       PRES   REMARKS
SIOUX FALLS    CLOUDY    63  62  97 SE6       30.02S
HURON          CLOUDY    61  61 100 S10       29.99R
CHAMBERLAIN    SUNNY     64  63  94 S7        30.00R
MITCHELL       CLOUDY    63  61  93 S12       30.02R
YANKTON        CLOUDY    64  61  88 E3        30.01S
$$

ABBREVIATIONS USED IN REMARKS
   TC - TEMPERATURE IN CELSIUS
  WCI - WIND CHILL INDEX
   HX - HEAT INDEX
  VSB - VISIBILITY





USA.gov is the U.S. government's official web portal to all federal, state and local government web resources and services.